Time,TemperatureF,DewpointF,PressureIn,WindDirection,WindDirectionDegrees,WindSpeedMPH,WindSpeedGustMPH,Humidity,HourlyPrecipIn,Conditions,Clouds,dailyrainin,SoftwareType,DateUTC
2013-03-27 09:14:00,52.7,32.0,30.30,NW,321,5.8,5.8,45,0.00,,---,0.00,VWS V14.01,2013-03-27 13:14:00,
2013-03-27 09:15:00,52.7,32.0,30.30,NNW,328,6.3,6.3,45,0.00,,---,0.00,VWS V14.01,2013-03-27 13:15:00,
2013-03-27 09:19:00,53.1,32.8,30.30,NNW,332,5.8,5.8,46,0.00,,---,0.00,VWS V14.01,2013-03-27 13:19:00,
2013-03-27 09:20:00,53.1,32.8,30.30,North,353,8.1,8.1,46,0.00,,---,0.00,VWS V14.01,2013-03-27 13:20:00,
2013-03-27 09:24:00,53.2,33.0,30.30,NNW,333,2.7,5.4,46,0.00,,---,0.00,VWS V14.01,2013-03-27 13:24:00,
2013-03-27 09:25:00,53.4,33.2,30.30,NNW,333,2.7,4.9,46,0.00,,---,0.00,VWS V14.01,2013-03-27 13:25:00,
2013-03-27 09:29:00,53.8,33.0,30.30,WNW,288,5.8,5.8,45,0.00,,---,0.00,VWS V14.01,2013-03-27 13:29:00,
2013-03-27 09:30:00,53.8,33.0,30.30,NNW,329,3.6,6.3,45,0.00,,---,0.00,VWS V14.01,2013-03-27 13:30:00,
2013-03-27 09:34:00,54.1,33.8,30.30,NW,314,3.1,8.3,46,0.00,,---,0.00,VWS V14.01,2013-03-27 13:34:00,
2013-03-27 09:36:00,54.3,34.0,30.30,NW,320,4.9,5.4,46,0.00,,---,0.00,VWS V14.01,2013-03-27 13:36:00,
2013-03-27 09:39:00,54.5,34.2,30.30,NNW,333,6.3,8.1,46,0.00,,---,0.00,VWS V14.01,2013-03-27 13:39:00,
2013-03-27 09:41:00,54.5,34.2,30.30,West,281,6.3,8.3,46,0.00,,---,0.00,VWS V14.01,2013-03-27 13:41:00,
2013-03-27 09:44:00,55.0,34.7,30.30,WNW,288,3.6,6.3,46,0.00,,---,0.00,VWS V14.01,2013-03-27 13:44:00,
2013-03-27 09:46:00,55.0,34.7,30.30,NW,326,5.4,8.7,46,0.00,,---,0.00,VWS V14.01,2013-03-27 13:46:00,
2013-03-27 09:49:00,55.2,34.8,30.30,NW,310,3.1,6.3,46,0.00,,---,0.00,VWS V14.01,2013-03-27 13:49:00,
2013-03-27 09:51:00,55.4,35.0,30.30,NW,317,5.8,7.2,46,0.00,,---,0.00,VWS V14.01,2013-03-27 13:51:00,
2013-03-27 09:54:00,55.6,35.2,30.30,North,0,10.1,10.1,46,0.00,,---,0.00,VWS V14.01,2013-03-27 13:54:00,
2013-03-27 09:56:00,55.8,35.3,30.30,NW,313,4.0,4.5,46,0.00,,---,0.00,VWS V14.01,2013-03-27 13:56:00,
2013-03-27 09:59:00,55.9,35.5,30.30,NNW,343,7.6,7.6,46,0.00,,---,0.00,VWS V14.01,2013-03-27 13:59:00,
2013-03-27 10:00:00,55.9,35.5,30.30,NNW,343,7.6,7.6,46,0.00,,---,0.00,VWS V14.01,2013-03-27 14:00:00,
2013-03-27 10:02:00,56.1,36.2,30.30,North,8,4.9,4.9,47,0.00,,---,0.00,VWS V14.01,2013-03-27 14:02:00,
2013-03-27 10:04:00,56.3,36.3,30.30,North,357,3.1,10.5,47,0.00,,---,0.00,VWS V14.01,2013-03-27 14:04:00,
2013-03-27 10:05:00,56.3,36.3,30.30,North,357,3.1,3.1,47,0.00,,---,0.00,VWS V14.01,2013-03-27 14:05:00,
2013-03-27 10:07:00,56.5,36.5,30.30,NW,313,6.3,8.1,47,0.00,,---,0.00,VWS V14.01,2013-03-27 14:07:00,
2013-03-27 10:10:00,56.5,36.0,30.30,NW,321,3.1,4.9,46,0.00,,---,0.00,VWS V14.01,2013-03-27 14:10:00,
2013-03-27 10:12:00,56.7,36.7,30.30,NNW,334,5.8,8.1,47,0.00,,---,0.00,VWS V14.01,2013-03-27 14:12:00,
2013-03-27 10:15:00,56.8,36.8,30.30,North,353,8.1,8.3,47,0.00,,---,0.00,VWS V14.01,2013-03-27 14:15:00,
2013-03-27 10:18:00,57.0,37.0,30.30,North,349,9.6,9.6,47,0.00,,---,0.00,VWS V14.01,2013-03-27 14:18:00,
2013-03-27 10:20:00,57.2,37.2,30.30,NW,325,5.8,8.1,47,0.00,,---,0.00,VWS V14.01,2013-03-27 14:20:00,
2013-03-27 10:23:00,57.2,37.2,30.30,NNW,333,5.4,5.4,47,0.00,,---,0.00,VWS V14.01,2013-03-27 14:23:00,
2013-03-27 10:25:00,57.2,37.2,30.30,NNW,333,5.4,5.4,47,0.00,,---,0.00,VWS V14.01,2013-03-27 14:25:00,
2013-03-27 10:28:00,57.2,37.2,30.30,NNW,333,5.4,5.4,47,0.00,,---,0.00,VWS V14.01,2013-03-27 14:28:00,
2013-03-27 10:30:00,57.2,37.2,30.30,NNW,333,5.4,5.4,47,0.00,,---,0.00,VWS V14.01,2013-03-27 14:30:00,
2013-03-27 10:33:00,57.2,37.2,30.30,NNW,333,5.4,5.4,47,0.00,,---,0.00,VWS V14.01,2013-03-27 14:33:00,
2013-03-27 10:35:00,57.9,37.8,30.30,NNW,333,5.4,5.4,47,0.00,,---,0.00,VWS V14.01,2013-03-27 14:35:00,
2013-03-27 10:36:00,57.9,37.8,30.30,NNW,333,5.4,5.4,47,0.00,,---,0.00,VWS V14.01,2013-03-27 14:36:00,
2013-03-27 10:38:00,57.9,37.8,30.30,NNW,333,5.4,5.4,47,0.00,,---,0.00,VWS V14.01,2013-03-27 14:38:00,
2013-03-27 10:40:00,57.9,37.8,30.30,NNW,333,5.4,5.4,47,0.00,,---,0.00,VWS V14.01,2013-03-27 14:40:00,
2013-03-27 10:41:00,57.9,37.8,30.30,NNW,333,5.4,5.4,47,0.00,,---,0.00,VWS V14.01,2013-03-27 14:41:00,
2013-03-27 10:43:00,57.9,37.8,30.30,NNW,333,5.4,5.4,47,0.00,,---,0.00,VWS V14.01,2013-03-27 14:43:00,
2013-03-27 10:46:00,57.9,37.8,30.30,NNW,333,5.4,5.4,47,0.00,,---,0.00,VWS V14.01,2013-03-27 14:46:00,
2013-03-27 10:48:00,57.9,37.8,30.30,NNW,333,5.4,5.4,47,0.00,,---,0.00,VWS V14.01,2013-03-27 14:48:00,
2013-03-27 10:51:00,57.9,37.8,30.30,NNW,334,8.3,8.3,47,0.00,,---,0.00,VWS V14.01,2013-03-27 14:51:00,
2013-03-27 10:53:00,57.9,37.8,30.30,NNW,334,8.3,8.3,47,0.00,,---,0.00,VWS V14.01,2013-03-27 14:53:00,
2013-03-27 10:56:00,57.9,37.8,30.30,NNW,334,8.3,8.3,47,0.00,,---,0.00,VWS V14.01,2013-03-27 14:56:00,
2013-03-27 10:57:00,57.9,37.8,30.30,NNW,334,8.3,8.3,47,0.00,,---,0.00,VWS V14.01,2013-03-27 14:57:00,
2013-03-27 10:58:00,57.9,37.8,30.30,NNW,339,3.6,8.3,47,0.00,,---,0.00,VWS V14.01,2013-03-27 14:58:00,
2013-03-27 11:01:00,57.9,37.8,30.30,NNW,339,3.6,3.6,47,0.00,,---,0.00,VWS V14.01,2013-03-27 15:01:00,
2013-03-27 11:02:00,57.9,37.8,30.30,NNW,339,3.6,3.6,47,0.00,,---,0.00,VWS V14.01,2013-03-27 15:02:00,
2013-03-27 11:03:00,57.9,37.8,30.30,NNW,339,3.6,3.6,47,0.00,,---,0.00,VWS V14.01,2013-03-27 15:03:00,
2013-03-27 11:06:00,57.9,37.8,30.30,NNW,339,3.6,3.6,47,0.00,,---,0.00,VWS V14.01,2013-03-27 15:06:00,
2013-03-27 11:07:00,57.9,37.8,30.30,NNW,339,3.6,3.6,47,0.00,,---,0.00,VWS V14.01,2013-03-27 15:07:00,
2013-03-27 11:08:00,57.9,37.8,30.30,North,10,8.7,8.7,47,0.00,,---,0.00,VWS V14.01,2013-03-27 15:08:00,
2013-03-27 11:09:00,57.9,37.8,30.30,North,10,8.7,8.7,47,0.00,,---,0.00,VWS V14.01,2013-03-27 15:09:00,
2013-03-27 11:11:00,59.4,38.6,30.30,North,10,8.7,8.7,46,0.00,,---,0.00,VWS V14.01,2013-03-27 15:11:00,
2013-03-27 11:12:00,59.4,38.6,30.30,North,10,8.7,8.7,46,0.00,,---,0.00,VWS V14.01,2013-03-27 15:12:00,
2013-03-27 11:13:00,59.4,38.6,30.30,North,10,8.7,8.7,46,0.00,,---,0.00,VWS V14.01,2013-03-27 15:13:00,
2013-03-27 11:14:00,59.4,38.6,30.30,North,10,8.7,8.7,46,0.00,,---,0.00,VWS V14.01,2013-03-27 15:14:00,
2013-03-27 11:17:00,59.4,38.6,30.30,North,10,8.7,8.7,46,0.00,,---,0.00,VWS V14.01,2013-03-27 15:17:00,
2013-03-27 11:18:00,59.4,38.6,30.30,North,10,8.7,8.7,46,0.00,,---,0.00,VWS V14.01,2013-03-27 15:18:00,
2013-03-27 11:19:00,59.4,38.6,30.30,North,10,8.7,8.7,46,0.00,,---,0.00,VWS V14.01,2013-03-27 15:19:00,
2013-03-27 11:22:00,59.4,38.6,30.30,North,10,8.7,8.7,46,0.00,,---,0.00,VWS V14.01,2013-03-27 15:22:00,
2013-03-27 11:23:00,59.4,38.6,30.30,North,10,8.7,8.7,46,0.00,,---,0.00,VWS V14.01,2013-03-27 15:23:00,
2013-03-27 11:24:00,59.4,38.6,30.30,North,10,8.7,8.7,46,0.00,,---,0.00,VWS V14.01,2013-03-27 15:24:00,
2013-03-27 11:27:00,59.4,38.6,30.30,North,10,8.7,8.7,46,0.00,,---,0.00,VWS V14.01,2013-03-27 15:27:00,
2013-03-27 11:28:00,59.4,38.6,30.30,North,10,8.7,8.7,46,0.00,,---,0.00,VWS V14.01,2013-03-27 15:28:00,
2013-03-27 11:29:00,59.4,38.6,30.30,North,10,8.7,8.7,46,0.00,,---,0.00,VWS V14.01,2013-03-27 15:29:00,
2013-03-27 11:32:00,59.4,38.6,30.30,North,10,8.7,8.7,46,0.00,,---,0.00,VWS V14.01,2013-03-27 15:32:00,
2013-03-27 11:33:00,59.4,38.6,30.30,North,10,8.7,8.7,46,0.00,,---,0.00,VWS V14.01,2013-03-27 15:33:00,
2013-03-27 11:34:00,59.4,38.6,30.30,North,10,8.7,8.7,46,0.00,,---,0.00,VWS V14.01,2013-03-27 15:34:00,
2013-03-27 11:37:00,59.4,38.6,30.30,North,10,8.7,8.7,46,0.00,,---,0.00,VWS V14.01,2013-03-27 15:37:00,
2013-03-27 11:38:00,59.4,38.6,30.30,North,10,8.7,8.7,46,0.00,,---,0.00,VWS V14.01,2013-03-27 15:38:00,
2013-03-27 11:39:00,59.4,38.6,30.30,North,10,8.7,8.7,46,0.00,,---,0.00,VWS V14.01,2013-03-27 15:39:00,
2013-03-27 11:42:00,59.4,38.6,30.30,North,10,8.7,8.7,46,0.00,,---,0.00,VWS V14.01,2013-03-27 15:42:00,
2013-03-27 11:44:00,59.4,38.6,30.30,North,10,8.7,8.7,46,0.00,,---,0.00,VWS V14.01,2013-03-27 15:44:00,
2013-03-27 11:47:00,59.4,38.6,30.30,North,10,8.7,8.7,46,0.00,,---,0.00,VWS V14.01,2013-03-27 15:47:00,
2013-03-27 11:49:00,59.4,38.6,30.30,North,10,8.7,8.7,46,0.00,,---,0.00,VWS V14.01,2013-03-27 15:49:00,
2013-03-27 11:52:00,59.4,38.6,30.30,North,10,8.7,8.7,46,0.00,,---,0.00,VWS V14.01,2013-03-27 15:52:00,
2013-03-27 11:53:00,59.4,38.6,30.30,North,10,8.7,8.7,46,0.00,,---,0.00,VWS V14.01,2013-03-27 15:53:00,
2013-03-27 11:54:00,59.4,38.6,30.30,North,10,8.7,8.7,46,0.00,,---,0.00,VWS V14.01,2013-03-27 15:54:00,
2013-03-27 11:57:00,59.4,38.6,30.30,North,10,8.7,8.7,46,0.00,,---,0.00,VWS V14.01,2013-03-27 15:57:00,
2013-03-27 11:58:00,59.4,38.6,30.30,North,10,8.7,8.7,46,0.00,,---,0.00,VWS V14.01,2013-03-27 15:58:00,
2013-03-27 11:59:00,59.4,38.6,30.30,North,10,8.7,8.7,46,0.00,,---,0.00,VWS V14.01,2013-03-27 15:59:00,
2013-03-27 12:02:00,59.4,38.6,30.30,North,10,8.7,8.7,46,0.00,,---,0.00,VWS V14.01,2013-03-27 16:02:00,
2013-03-27 12:03:00,59.4,38.6,30.30,North,10,8.7,8.7,46,0.00,,---,0.00,VWS V14.01,2013-03-27 16:03:00,
2013-03-27 12:04:00,59.4,38.6,30.30,North,10,8.7,8.7,46,0.00,,---,0.00,VWS V14.01,2013-03-27 16:04:00,
2013-03-27 12:07:00,59.4,38.6,30.30,North,10,8.7,8.7,46,0.00,,---,0.00,VWS V14.01,2013-03-27 16:07:00,
2013-03-27 12:08:00,59.4,38.6,30.30,North,10,8.7,8.7,46,0.00,,---,0.00,VWS V14.01,2013-03-27 16:08:00,
2013-03-27 12:09:00,59.4,38.6,30.30,North,10,8.7,8.7,46,0.00,,---,0.00,VWS V14.01,2013-03-27 16:09:00,
2013-03-27 12:13:00,59.4,38.6,30.30,North,10,8.7,8.7,46,0.00,,---,0.00,VWS V14.01,2013-03-27 16:13:00,
2013-03-27 12:14:00,59.4,38.6,30.30,North,10,8.7,8.7,46,0.00,,---,0.00,VWS V14.01,2013-03-27 16:14:00,
2013-03-27 12:15:00,59.4,38.6,30.30,North,10,8.7,8.7,46,0.00,,---,0.00,VWS V14.01,2013-03-27 16:15:00,
2013-03-27 12:18:00,59.4,38.6,30.30,North,10,8.7,8.7,46,0.00,,---,0.00,VWS V14.01,2013-03-27 16:18:00,
2013-03-27 12:19:00,59.4,38.6,30.30,North,10,8.7,8.7,46,0.00,,---,0.00,VWS V14.01,2013-03-27 16:19:00,
2013-03-27 12:20:00,59.4,38.6,30.30,North,10,8.7,8.7,46,0.00,,---,0.00,VWS V14.01,2013-03-27 16:20:00,
2013-03-27 12:23:00,59.4,38.6,30.30,WNW,287,4.5,4.5,46,0.00,,---,0.00,VWS V14.01,2013-03-27 16:23:00,
2013-03-27 12:25:00,59.4,38.6,30.30,WNW,287,4.5,4.5,46,0.00,,---,0.00,VWS V14.01,2013-03-27 16:25:00,
2013-03-27 12:28:00,59.4,38.6,30.30,WNW,287,4.5,4.5,46,0.00,,---,0.00,VWS V14.01,2013-03-27 16:28:00,
2013-03-27 12:30:00,59.4,38.6,30.30,WNW,287,4.5,4.5,46,0.00,,---,0.00,VWS V14.01,2013-03-27 16:30:00,
2013-03-27 12:33:00,59.4,38.6,30.30,WNW,287,4.5,4.5,46,0.00,,---,0.00,VWS V14.01,2013-03-27 16:33:00,
2013-03-27 12:35:00,59.4,38.6,30.30,WNW,287,4.5,4.5,46,0.00,,---,0.00,VWS V14.01,2013-03-27 16:35:00,
2013-03-27 12:38:00,59.4,38.6,30.30,WNW,287,4.5,4.5,46,0.00,,---,0.00,VWS V14.01,2013-03-27 16:38:00,
2013-03-27 12:40:00,59.4,38.6,30.30,WNW,287,4.5,4.5,46,0.00,,---,0.00,VWS V14.01,2013-03-27 16:40:00,
2013-03-27 12:43:00,59.4,38.6,30.30,WNW,287,4.5,4.5,46,0.00,,---,0.00,VWS V14.01,2013-03-27 16:43:00,
2013-03-27 12:44:00,59.4,38.6,30.30,WNW,287,4.5,4.5,46,0.00,,---,0.00,VWS V14.01,2013-03-27 16:44:00,
2013-03-27 12:45:00,59.4,38.6,30.30,WNW,287,4.5,4.5,46,0.00,,---,0.00,VWS V14.01,2013-03-27 16:45:00,
2013-03-27 12:48:00,59.4,38.6,30.30,NW,324,2.7,2.7,46,0.00,,---,0.00,VWS V14.01,2013-03-27 16:48:00,
2013-03-27 12:49:00,59.4,38.6,30.30,NW,324,2.7,2.7,46,0.00,,---,0.00,VWS V14.01,2013-03-27 16:49:00,
2013-03-27 12:50:00,59.4,38.6,30.30,NW,324,2.7,2.7,46,0.00,,---,0.00,VWS V14.01,2013-03-27 16:50:00,
2013-03-27 12:53:00,59.4,38.6,30.30,NW,324,2.7,2.7,46,0.00,,---,0.00,VWS V14.01,2013-03-27 16:53:00,
2013-03-27 12:54:00,59.4,38.6,30.30,NW,324,2.7,2.7,46,0.00,,---,0.00,VWS V14.01,2013-03-27 16:54:00,
2013-03-27 12:55:00,59.4,38.6,30.30,NW,324,2.7,2.7,46,0.00,,---,0.00,VWS V14.01,2013-03-27 16:55:00,
2013-03-27 12:58:00,59.4,38.6,30.30,NW,324,2.7,2.7,46,0.00,,---,0.00,VWS V14.01,2013-03-27 16:58:00,
2013-03-27 12:59:00,59.4,38.6,30.30,NW,324,2.7,2.7,46,0.00,,---,0.00,VWS V14.01,2013-03-27 16:59:00,
2013-03-27 13:00:00,59.4,38.6,30.30,NW,324,2.7,2.7,46,0.00,,---,0.00,VWS V14.01,2013-03-27 17:00:00,
2013-03-27 13:03:00,59.4,38.6,30.30,NW,324,2.7,2.7,46,0.00,,---,0.00,VWS V14.01,2013-03-27 17:03:00,
2013-03-27 13:04:00,59.4,38.6,30.30,NW,324,2.7,2.7,46,0.00,,---,0.00,VWS V14.01,2013-03-27 17:04:00,
2013-03-27 13:05:00,59.4,38.6,30.30,NW,324,2.7,2.7,46,0.00,,---,0.00,VWS V14.01,2013-03-27 17:05:00,
2013-03-27 13:08:00,59.4,38.6,30.30,NW,324,2.7,2.7,46,0.00,,---,0.00,VWS V14.01,2013-03-27 17:08:00,
2013-03-27 13:09:00,59.4,38.6,30.30,NW,324,2.7,2.7,46,0.00,,---,0.00,VWS V14.01,2013-03-27 17:09:00,
2013-03-27 13:10:00,59.4,38.6,30.30,NW,324,2.7,2.7,46,0.00,,---,0.00,VWS V14.01,2013-03-27 17:10:00,
2013-03-27 13:14:00,59.4,38.6,30.30,NW,324,2.7,2.7,46,0.00,,---,0.00,VWS V14.01,2013-03-27 17:14:00,
2013-03-27 13:15:00,59.4,38.6,30.30,WSW,254,3.1,3.1,46,0.00,,---,0.00,VWS V14.01,2013-03-27 17:15:00,
2013-03-27 13:16:00,59.4,38.6,30.30,WSW,254,3.1,3.1,46,0.00,,---,0.00,VWS V14.01,2013-03-27 17:16:00,
2013-03-27 13:19:00,59.4,38.6,30.30,WSW,254,3.1,3.1,46,0.00,,---,0.00,VWS V14.01,2013-03-27 17:19:00,
2013-03-27 13:20:00,59.4,38.6,30.30,WSW,254,3.1,3.1,46,0.00,,---,0.00,VWS V14.01,2013-03-27 17:20:00,
2013-03-27 13:21:00,59.4,38.6,30.30,WSW,254,3.1,3.1,46,0.00,,---,0.00,VWS V14.01,2013-03-27 17:21:00,
2013-03-27 13:24:00,59.4,38.6,30.30,NNW,344,3.6,3.6,46,0.00,,---,0.00,VWS V14.01,2013-03-27 17:24:00,
2013-03-27 13:25:00,59.4,38.6,30.30,NNW,344,3.6,3.6,46,0.00,,---,0.00,VWS V14.01,2013-03-27 17:25:00,
2013-03-27 13:26:00,59.4,38.6,30.30,NNW,344,3.6,3.6,46,0.00,,---,0.00,VWS V14.01,2013-03-27 17:26:00,
2013-03-27 13:29:00,59.4,38.6,30.30,NNW,344,3.6,3.6,46,0.00,,---,0.00,VWS V14.01,2013-03-27 17:29:00,
2013-03-27 13:30:00,59.4,38.6,30.30,NNW,344,3.6,3.6,46,0.00,,---,0.00,VWS V14.01,2013-03-27 17:30:00,
2013-03-27 13:31:00,59.4,38.6,30.30,NNW,344,3.6,3.6,46,0.00,,---,0.00,VWS V14.01,2013-03-27 17:31:00,
2013-03-27 13:34:00,59.4,38.6,30.30,West,268,0.0,0.0,46,0.00,,---,0.00,VWS V14.01,2013-03-27 17:34:00,
2013-03-27 13:35:00,59.4,38.6,30.30,West,268,0.0,0.0,46,0.00,,---,0.00,VWS V14.01,2013-03-27 17:35:00,
2013-03-27 13:36:00,59.4,38.6,30.30,West,268,0.0,0.0,46,0.00,,---,0.00,VWS V14.01,2013-03-27 17:36:00,
2013-03-27 13:40:00,59.4,38.6,30.27,West,268,0.0,0.0,46,0.00,,---,0.00,VWS V14.01,2013-03-27 17:40:00,
2013-03-27 13:41:00,59.4,38.6,30.27,West,268,0.0,0.0,46,0.00,,---,0.00,VWS V14.01,2013-03-27 17:41:00,
2013-03-27 13:42:00,59.4,38.6,30.27,West,268,0.0,0.0,46,0.00,,---,0.00,VWS V14.01,2013-03-27 17:42:00,
2013-03-27 13:45:00,59.4,38.6,30.27,North,357,7.6,7.6,46,0.00,,---,0.00,VWS V14.01,2013-03-27 17:45:00,
2013-03-27 13:46:00,59.4,38.6,30.27,North,357,7.6,7.6,46,0.00,,---,0.00,VWS V14.01,2013-03-27 17:46:00,
2013-03-27 13:47:00,59.4,38.6,30.27,North,357,7.6,7.6,46,0.00,,---,0.00,VWS V14.01,2013-03-27 17:47:00,
2013-03-27 13:50:00,59.4,38.6,30.27,North,357,7.6,7.6,46,0.00,,---,0.00,VWS V14.01,2013-03-27 17:50:00,
2013-03-27 13:51:00,59.4,38.6,30.27,North,357,7.6,7.6,46,0.00,,---,0.00,VWS V14.01,2013-03-27 17:51:00,
2013-03-27 13:52:00,59.4,38.6,30.27,North,357,7.6,7.6,46,0.00,,---,0.00,VWS V14.01,2013-03-27 17:52:00,
2013-03-27 13:55:00,59.4,38.6,30.27,North,357,7.6,7.6,46,0.00,,---,0.00,VWS V14.01,2013-03-27 17:55:00,
2013-03-27 13:56:00,59.4,38.6,30.27,North,357,7.6,7.6,46,0.00,,---,0.00,VWS V14.01,2013-03-27 17:56:00,
2013-03-27 13:57:00,59.4,38.6,30.27,North,357,7.6,7.6,46,0.00,,---,0.00,VWS V14.01,2013-03-27 17:57:00,
2013-03-27 14:00:00,59.4,38.6,30.27,North,357,7.6,7.6,46,0.00,,---,0.00,VWS V14.01,2013-03-27 18:00:00,
2013-03-27 14:01:00,59.4,38.6,30.27,NNE,16,0.0,0.0,46,0.00,,---,0.00,VWS V14.01,2013-03-27 18:01:00,
2013-03-27 14:02:00,59.4,38.6,30.27,NNE,16,0.0,0.0,46,0.00,,---,0.00,VWS V14.01,2013-03-27 18:02:00,
2013-03-27 14:05:00,59.4,38.6,30.27,NNE,16,0.0,0.0,46,0.00,,---,0.00,VWS V14.01,2013-03-27 18:05:00,
2013-03-27 14:07:00,59.4,38.6,30.27,NNE,16,0.0,0.0,46,0.00,,---,0.00,VWS V14.01,2013-03-27 18:07:00,
2013-03-27 14:08:00,59.4,38.6,30.27,NNE,16,0.0,0.0,46,0.00,,---,0.00,VWS V14.01,2013-03-27 18:08:00,
2013-03-27 14:10:00,59.4,38.6,30.27,NW,306,5.8,5.8,46,0.00,,---,0.00,VWS V14.01,2013-03-27 18:10:00,
2013-03-27 14:12:00,59.4,38.6,30.27,NW,306,5.8,5.8,46,0.00,,---,0.00,VWS V14.01,2013-03-27 18:12:00,
2013-03-27 14:13:00,59.4,38.6,30.27,NW,306,5.8,5.8,46,0.00,,---,0.00,VWS V14.01,2013-03-27 18:13:00,
2013-03-27 14:15:00,59.4,38.6,30.27,NW,306,5.8,5.8,46,0.00,,---,0.00,VWS V14.01,2013-03-27 18:15:00,
2013-03-27 14:16:00,59.4,38.6,30.27,NW,306,5.8,5.8,46,0.00,,---,0.00,VWS V14.01,2013-03-27 18:16:00,
2013-03-27 14:17:00,59.4,38.6,30.27,NW,306,5.8,5.8,46,0.00,,---,0.00,VWS V14.01,2013-03-27 18:17:00,
2013-03-27 14:18:00,59.4,38.6,30.27,NW,306,5.8,5.8,46,0.00,,---,0.00,VWS V14.01,2013-03-27 18:18:00,
2013-03-27 14:20:00,59.4,38.6,30.27,NNW,337,5.8,5.8,46,0.00,,---,0.00,VWS V14.01,2013-03-27 18:20:00,
2013-03-27 14:21:00,59.4,38.6,30.27,NNW,337,5.8,5.8,46,0.00,,---,0.00,VWS V14.01,2013-03-27 18:21:00,
2013-03-27 14:23:00,59.4,38.6,30.27,NNW,337,5.8,5.8,46,0.00,,---,0.00,VWS V14.01,2013-03-27 18:23:00,
2013-03-27 14:25:00,59.4,38.6,30.27,NNW,337,5.8,5.8,46,0.00,,---,0.00,VWS V14.01,2013-03-27 18:25:00,
2013-03-27 14:26:00,59.4,38.6,30.24,NNW,337,5.8,5.8,46,0.00,,---,0.00,VWS V14.01,2013-03-27 18:26:00,
2013-03-27 14:28:00,59.4,38.6,30.24,NNW,348,4.0,5.8,46,0.00,,---,0.00,VWS V14.01,2013-03-27 18:28:00,
2013-03-27 14:30:00,59.4,38.6,30.24,NNW,348,4.0,4.0,46,0.00,,---,0.00,VWS V14.01,2013-03-27 18:30:00,
2013-03-27 14:31:00,59.4,38.6,30.24,NNW,348,4.0,4.0,46,0.00,,---,0.00,VWS V14.01,2013-03-27 18:31:00,
2013-03-27 14:33:00,59.4,38.6,30.24,NNW,348,4.0,4.0,46,0.00,,---,0.00,VWS V14.01,2013-03-27 18:33:00,
2013-03-27 14:36:00,59.4,38.6,30.24,NNW,348,4.0,4.0,46,0.00,,---,0.00,VWS V14.01,2013-03-27 18:36:00,
2013-03-27 14:38:00,59.4,38.6,30.24,NNW,331,3.1,3.1,46,0.00,,---,0.00,VWS V14.01,2013-03-27 18:38:00,
2013-03-27 14:41:00,59.4,38.6,30.24,NNW,344,2.2,3.1,46,0.00,,---,0.00,VWS V14.01,2013-03-27 18:41:00,
2013-03-27 14:43:00,59.4,38.6,30.24,NNW,344,2.2,2.2,46,0.00,,---,0.00,VWS V14.01,2013-03-27 18:43:00,
2013-03-27 14:44:00,59.4,38.6,30.24,NNW,344,2.2,2.2,46,0.00,,---,0.00,VWS V14.01,2013-03-27 18:44:00,
2013-03-27 14:46:00,59.4,38.6,30.24,NW,324,3.6,3.6,46,0.00,,---,0.00,VWS V14.01,2013-03-27 18:46:00,
2013-03-27 14:48:00,59.4,38.6,30.24,NW,324,3.6,3.6,46,0.00,,---,0.00,VWS V14.01,2013-03-27 18:48:00,
2013-03-27 14:49:00,59.4,38.6,30.24,NW,324,3.6,3.6,46,0.00,,---,0.00,VWS V14.01,2013-03-27 18:49:00,
2013-03-27 14:51:00,59.4,38.6,30.24,NW,324,3.6,3.6,46,0.00,,---,0.00,VWS V14.01,2013-03-27 18:51:00,
2013-03-27 14:52:00,59.4,38.6,30.24,NW,324,3.6,3.6,46,0.00,,---,0.00,VWS V14.01,2013-03-27 18:52:00,
2013-03-27 14:53:00,59.4,38.6,30.24,NW,309,5.4,5.4,46,0.00,,---,0.00,VWS V14.01,2013-03-27 18:53:00,
2013-03-27 14:54:00,59.4,38.6,30.24,NW,307,4.0,4.0,46,0.00,,---,0.00,VWS V14.01,2013-03-27 18:54:00,
2013-03-27 14:57:00,59.4,38.6,30.24,NW,306,3.6,3.6,46,0.00,,---,0.00,VWS V14.01,2013-03-27 18:57:00,
2013-03-27 14:58:00,59.4,38.6,30.24,NW,306,3.6,3.6,46,0.00,,---,0.00,VWS V14.01,2013-03-27 18:58:00,
2013-03-27 14:59:00,59.4,38.6,30.24,NW,306,3.6,3.6,46,0.00,,---,0.00,VWS V14.01,2013-03-27 18:59:00,
2013-03-27 15:02:00,59.4,38.6,30.24,NW,306,3.6,3.6,46,0.00,,---,0.00,VWS V14.01,2013-03-27 19:02:00,
2013-03-27 15:03:00,59.4,38.6,30.24,NW,306,3.6,3.6,46,0.00,,---,0.00,VWS V14.01,2013-03-27 19:03:00,
2013-03-27 15:04:00,59.4,38.6,30.24,West,268,2.2,2.2,46,0.00,,---,0.00,VWS V14.01,2013-03-27 19:04:00,
2013-03-27 15:07:00,59.4,38.6,30.24,West,268,2.2,2.2,46,0.00,,---,0.00,VWS V14.01,2013-03-27 19:07:00,
2013-03-27 15:08:00,59.4,38.6,30.24,West,268,2.2,2.2,46,0.00,,---,0.00,VWS V14.01,2013-03-27 19:08:00,
2013-03-27 15:09:00,59.4,38.6,30.24,West,268,2.2,2.2,46,0.00,,---,0.00,VWS V14.01,2013-03-27 19:09:00,
2013-03-27 15:12:00,59.4,38.6,30.24,West,268,2.2,2.2,46,0.00,,---,0.00,VWS V14.01,2013-03-27 19:12:00,
2013-03-27 15:13:00,59.4,38.6,30.24,NW,315,8.7,8.7,46,0.00,,---,0.00,VWS V14.01,2013-03-27 19:13:00,
2013-03-27 15:14:00,59.4,38.6,30.24,NNW,334,2.7,5.4,46,0.00,,---,0.00,VWS V14.01,2013-03-27 19:14:00,
2013-03-27 15:17:00,59.4,38.6,30.24,NNW,334,2.7,2.7,46,0.00,,---,0.00,VWS V14.01,2013-03-27 19:17:00,
2013-03-27 15:18:00,59.4,38.6,30.24,NNW,334,2.7,2.7,46,0.00,,---,0.00,VWS V14.01,2013-03-27 19:18:00,
2013-03-27 15:19:00,59.4,38.6,30.24,NNW,334,2.7,2.7,46,0.00,,---,0.00,VWS V14.01,2013-03-27 19:19:00,
2013-03-27 15:22:00,59.4,38.6,30.24,NNW,334,2.7,2.7,46,0.00,,---,0.00,VWS V14.01,2013-03-27 19:22:00,
2013-03-27 15:23:00,59.4,38.6,30.24,NNW,334,2.7,2.7,46,0.00,,---,0.00,VWS V14.01,2013-03-27 19:23:00,
2013-03-27 15:25:00,59.4,38.6,30.24,NNW,334,2.7,2.7,46,0.00,,---,0.00,VWS V14.01,2013-03-27 19:25:00,
2013-03-27 15:28:00,59.4,38.6,30.24,NNW,334,2.7,2.7,46,0.00,,---,0.00,VWS V14.01,2013-03-27 19:28:00,
2013-03-27 15:29:00,59.4,38.6,30.24,NNW,334,2.7,2.7,46,0.00,,---,0.00,VWS V14.01,2013-03-27 19:29:00,
2013-03-27 15:30:00,59.4,38.6,30.24,NNW,334,2.7,2.7,46,0.00,,---,0.00,VWS V14.01,2013-03-27 19:30:00,
2013-03-27 15:33:00,59.4,38.6,30.24,NNE,15,3.1,3.1,46,0.00,,---,0.00,VWS V14.01,2013-03-27 19:33:00,
2013-03-27 15:34:00,59.4,38.6,30.24,NNE,15,3.1,3.1,46,0.00,,---,0.00,VWS V14.01,2013-03-27 19:34:00,
2013-03-27 15:35:00,59.4,38.6,30.24,NNE,15,3.1,3.1,46,0.00,,---,0.00,VWS V14.01,2013-03-27 19:35:00,
2013-03-27 15:38:00,59.4,38.6,30.24,NW,309,4.9,4.9,46,0.00,,---,0.00,VWS V14.01,2013-03-27 19:38:00,
2013-03-27 15:39:00,59.4,38.6,30.24,NW,309,4.9,4.9,46,0.00,,---,0.00,VWS V14.01,2013-03-27 19:39:00,
2013-03-27 15:40:00,59.4,38.6,30.24,NW,309,4.9,4.9,46,0.00,,---,0.00,VWS V14.01,2013-03-27 19:40:00,
2013-03-27 15:43:00,59.4,38.6,30.24,NNW,339,4.0,4.0,46,0.00,,---,0.00,VWS V14.01,2013-03-27 19:43:00,
2013-03-27 15:44:00,59.4,38.6,30.24,NNW,339,4.0,4.0,46,0.00,,---,0.00,VWS V14.01,2013-03-27 19:44:00,
2013-03-27 15:45:00,59.4,38.6,30.24,NNW,339,4.0,4.0,46,0.00,,---,0.00,VWS V14.01,2013-03-27 19:45:00,
2013-03-27 15:48:00,59.4,38.6,30.24,NW,309,0.0,0.0,46,0.00,,---,0.00,VWS V14.01,2013-03-27 19:48:00,
2013-03-27 15:49:00,59.4,38.6,30.24,NW,309,0.0,0.0,46,0.00,,---,0.00,VWS V14.01,2013-03-27 19:49:00,
2013-03-27 15:50:00,59.4,38.6,30.24,South,174,0.0,0.0,46,0.00,,---,0.00,VWS V14.01,2013-03-27 19:50:00,
2013-03-27 15:53:00,59.4,38.6,30.24,SSW,198,0.0,0.0,46,0.00,,---,0.00,VWS V14.01,2013-03-27 19:53:00,
2013-03-27 15:54:00,59.4,38.6,30.24,SSW,198,0.0,0.0,46,0.00,,---,0.00,VWS V14.01,2013-03-27 19:54:00,
2013-03-27 15:55:00,59.4,38.6,30.24,SSW,198,0.0,0.0,46,0.00,,---,0.00,VWS V14.01,2013-03-27 19:55:00,
2013-03-27 15:58:00,59.4,38.6,30.24,SSW,198,0.0,0.0,46,0.00,,---,0.00,VWS V14.01,2013-03-27 19:58:00,
2013-03-27 15:59:00,59.4,38.6,30.24,South,185,2.7,2.7,46,0.00,,---,0.00,VWS V14.01,2013-03-27 19:59:00,
2013-03-27 16:01:00,59.4,38.6,30.24,North,353,12.3,12.3,46,0.00,,---,0.00,VWS V14.01,2013-03-27 20:01:00,
2013-03-27 16:03:00,59.4,38.6,30.24,North,353,12.3,12.3,46,0.00,,---,0.00,VWS V14.01,2013-03-27 20:03:00,
2013-03-27 16:04:00,59.4,38.6,30.24,North,353,12.3,12.3,46,0.00,,---,0.00,VWS V14.01,2013-03-27 20:04:00,
2013-03-27 16:06:00,59.4,38.6,30.24,North,353,12.3,12.3,46,0.00,,---,0.00,VWS V14.01,2013-03-27 20:06:00,
2013-03-27 16:08:00,59.4,38.6,30.24,NNE,21,3.6,12.3,46,0.00,,---,0.00,VWS V14.01,2013-03-27 20:08:00,
2013-03-27 16:09:00,59.4,38.6,30.24,NNE,21,3.6,3.6,46,0.00,,---,0.00,VWS V14.01,2013-03-27 20:09:00,
2013-03-27 16:11:00,59.4,38.6,30.24,NW,326,3.6,3.6,46,0.00,,---,0.00,VWS V14.01,2013-03-27 20:11:00,
2013-03-27 16:13:00,59.4,38.6,30.24,NW,326,3.6,3.6,46,0.00,,---,0.00,VWS V14.01,2013-03-27 20:13:00,
2013-03-27 16:14:00,59.4,38.6,30.24,NW,326,3.6,3.6,46,0.00,,---,0.00,VWS V14.01,2013-03-27 20:14:00,
2013-03-27 16:16:00,59.4,38.6,30.24,NW,326,3.6,3.6,46,0.00,,---,0.00,VWS V14.01,2013-03-27 20:16:00,
2013-03-27 16:18:00,59.4,38.6,30.24,West,266,0.0,0.0,46,0.00,,---,0.00,VWS V14.01,2013-03-27 20:18:00,
2013-03-27 16:19:00,59.4,38.6,30.24,West,266,0.0,0.0,46,0.00,,---,0.00,VWS V14.01,2013-03-27 20:19:00,
2013-03-27 16:22:00,59.4,38.6,30.21,NNW,344,3.1,3.1,46,0.00,,---,0.00,VWS V14.01,2013-03-27 20:22:00,
2013-03-27 16:24:00,59.4,38.6,30.21,NNW,344,3.1,3.1,46,0.00,,---,0.00,VWS V14.01,2013-03-27 20:24:00,
2013-03-27 16:27:00,59.4,38.6,30.21,North,357,2.2,2.2,46,0.00,,---,0.00,VWS V14.01,2013-03-27 20:27:00,
2013-03-27 16:29:00,59.4,38.6,30.21,North,357,2.2,2.2,46,0.00,,---,0.00,VWS V14.01,2013-03-27 20:29:00,
2013-03-27 16:32:00,59.4,38.6,30.21,SW,222,4.0,4.0,46,0.00,,---,0.00,VWS V14.01,2013-03-27 20:32:00,
2013-03-27 16:34:00,59.4,38.6,30.21,SW,222,4.0,4.0,46,0.00,,---,0.00,VWS V14.01,2013-03-27 20:34:00,
2013-03-27 16:35:00,59.4,38.6,30.21,SW,222,4.0,4.0,46,0.00,,---,0.00,VWS V14.01,2013-03-27 20:35:00,
2013-03-27 16:37:00,59.4,38.6,30.21,NNW,332,5.4,5.4,46,0.00,,---,0.00,VWS V14.01,2013-03-27 20:37:00,
2013-03-27 16:39:00,59.4,38.6,30.21,NW,324,4.0,5.4,46,0.00,,---,0.00,VWS V14.01,2013-03-27 20:39:00,
2013-03-27 16:40:00,59.4,38.6,30.21,NW,324,4.0,4.0,46,0.00,,---,0.00,VWS V14.01,2013-03-27 20:40:00,
2013-03-27 16:43:00,59.4,38.6,30.21,North,11,3.1,3.1,46,0.00,,---,0.00,VWS V14.01,2013-03-27 20:43:00,
2013-03-27 16:44:00,59.4,38.6,30.21,SE,140,3.1,3.1,46,0.00,,---,0.00,VWS V14.01,2013-03-27 20:44:00,
2013-03-27 16:45:00,59.4,38.6,30.21,SE,140,3.1,3.1,46,0.00,,---,0.00,VWS V14.01,2013-03-27 20:45:00,
2013-03-27 16:48:00,59.4,38.6,30.21,NW,319,4.0,4.0,46,0.00,,---,0.00,VWS V14.01,2013-03-27 20:48:00,
2013-03-27 16:49:00,59.4,38.6,30.21,NW,319,4.0,4.0,46,0.00,,---,0.00,VWS V14.01,2013-03-27 20:49:00,
2013-03-27 16:50:00,59.4,38.6,30.21,NW,319,4.0,4.0,46,0.00,,---,0.00,VWS V14.01,2013-03-27 20:50:00,
2013-03-27 16:54:00,59.4,38.6,30.21,North,357,2.7,2.7,46,0.00,,---,0.00,VWS V14.01,2013-03-27 20:54:00,
2013-03-27 16:55:00,59.4,38.6,30.21,North,357,2.7,2.7,46,0.00,,---,0.00,VWS V14.01,2013-03-27 20:55:00,
2013-03-27 16:59:00,59.4,38.6,30.21,NW,321,4.0,4.0,46,0.00,,---,0.00,VWS V14.01,2013-03-27 20:59:00,
2013-03-27 17:00:00,59.4,38.6,30.21,NW,321,4.0,4.0,46,0.00,,---,0.00,VWS V14.01,2013-03-27 21:00:00,
2013-03-27 17:04:00,59.4,38.6,30.21,NNE,24,3.1,3.1,46,0.00,,---,0.00,VWS V14.01,2013-03-27 21:04:00,
2013-03-27 17:05:00,59.4,38.6,30.21,North,353,0.0,0.0,46,0.00,,---,0.00,VWS V14.01,2013-03-27 21:05:00,
2013-03-27 17:09:00,59.4,38.6,30.21,North,9,5.4,5.4,46,0.00,,---,0.00,VWS V14.01,2013-03-27 21:09:00,
2013-03-27 17:10:00,59.4,38.6,30.21,North,9,5.4,5.4,46,0.00,,---,0.00,VWS V14.01,2013-03-27 21:10:00,
2013-03-27 17:14:00,59.4,38.6,30.21,NW,312,0.0,0.0,46,0.00,,---,0.00,VWS V14.01,2013-03-27 21:14:00,
2013-03-27 17:15:00,59.4,38.6,30.21,NNW,327,5.4,5.4,46,0.00,,---,0.00,VWS V14.01,2013-03-27 21:15:00,
2013-03-27 17:19:00,59.4,38.6,30.21,NNW,330,6.3,6.3,46,0.00,,---,0.00,VWS V14.01,2013-03-27 21:19:00,
2013-03-27 17:20:00,59.4,38.6,30.21,NNW,330,6.3,6.3,46,0.00,,---,0.00,VWS V14.01,2013-03-27 21:20:00,
2013-03-27 17:21:00,59.4,38.6,30.21,NW,309,3.6,3.6,46,0.00,,---,0.00,VWS V14.01,2013-03-27 21:21:00,
2013-03-27 17:25:00,68.9,40.9,30.21,NW,309,3.6,3.6,36,0.00,,---,0.00,VWS V14.01,2013-03-27 21:25:00,
2013-03-27 17:27:00,68.9,40.9,30.21,North,357,4.9,4.9,36,0.00,,---,0.00,VWS V14.01,2013-03-27 21:27:00,
2013-03-27 17:30:00,68.9,40.9,30.21,NNW,333,4.0,4.0,36,0.00,,---,0.00,VWS V14.01,2013-03-27 21:30:00,
2013-03-27 17:31:00,68.9,40.9,30.21,NNW,333,4.0,4.0,36,0.00,,---,0.00,VWS V14.01,2013-03-27 21:31:00,
2013-03-27 17:32:00,68.9,40.9,30.21,NNW,333,4.0,4.0,36,0.00,,---,0.00,VWS V14.01,2013-03-27 21:32:00,
2013-03-27 17:35:00,68.9,40.9,30.21,NNW,333,4.0,4.0,36,0.00,,---,0.00,VWS V14.01,2013-03-27 21:35:00,
2013-03-27 17:36:00,68.9,40.9,30.21,NNW,333,4.0,4.0,36,0.00,,---,0.00,VWS V14.01,2013-03-27 21:36:00,
2013-03-27 17:37:00,68.9,40.9,30.21,North,0,5.4,8.7,36,0.00,,---,0.00,VWS V14.01,2013-03-27 21:37:00,
2013-03-27 17:40:00,68.9,40.9,30.24,NNW,330,4.9,4.9,36,0.00,,---,0.00,VWS V14.01,2013-03-27 21:40:00,
2013-03-27 17:41:00,68.9,40.9,30.24,NNW,330,4.9,4.9,36,0.00,,---,0.00,VWS V14.01,2013-03-27 21:41:00,
2013-03-27 17:42:00,68.9,40.9,30.24,NNW,330,4.9,4.9,36,0.00,,---,0.00,VWS V14.01,2013-03-27 21:42:00,
2013-03-27 17:45:00,68.9,40.9,30.24,NNW,330,4.9,4.9,36,0.00,,---,0.00,VWS V14.01,2013-03-27 21:45:00,
2013-03-27 17:47:00,68.9,40.9,30.24,NW,306,3.6,3.6,36,0.00,,---,0.00,VWS V14.01,2013-03-27 21:47:00,
2013-03-27 17:48:00,68.9,40.9,30.24,South,183,3.1,3.1,36,0.00,,---,0.00,VWS V14.01,2013-03-27 21:48:00,
2013-03-27 17:50:00,68.9,40.9,30.24,South,183,3.1,3.1,36,0.00,,---,0.00,VWS V14.01,2013-03-27 21:50:00,
2013-03-27 17:52:00,68.9,40.9,30.24,South,183,3.1,3.1,36,0.00,,---,0.00,VWS V14.01,2013-03-27 21:52:00,
2013-03-27 17:53:00,68.9,40.9,30.24,South,183,3.1,3.1,36,0.00,,---,0.00,VWS V14.01,2013-03-27 21:53:00,
2013-03-27 17:55:00,68.9,40.9,30.24,South,183,3.1,3.1,36,0.00,,---,0.00,VWS V14.01,2013-03-27 21:55:00,
2013-03-27 17:57:00,68.9,40.9,30.24,North,8,4.9,6.3,36,0.00,,---,0.00,VWS V14.01,2013-03-27 21:57:00,
2013-03-27 17:58:00,68.9,40.9,30.24,North,8,4.9,4.9,36,0.00,,---,0.00,VWS V14.01,2013-03-27 21:58:00,
2013-03-27 18:00:00,68.9,40.9,30.24,NW,305,5.4,5.4,36,0.00,,---,0.00,VWS V14.01,2013-03-27 22:00:00,
2013-03-27 18:02:00,68.9,40.9,30.24,NW,305,5.4,5.4,36,0.00,,---,0.00,VWS V14.01,2013-03-27 22:02:00,
2013-03-27 18:03:00,68.9,40.9,30.24,NW,305,5.4,5.4,36,0.00,,---,0.00,VWS V14.01,2013-03-27 22:03:00,
2013-03-27 18:05:00,68.9,40.9,30.24,WSW,254,3.6,5.4,36,0.00,,---,0.00,VWS V14.01,2013-03-27 22:05:00,
2013-03-27 18:07:00,68.9,40.9,30.24,SSW,194,3.6,3.6,36,0.00,,---,0.00,VWS V14.01,2013-03-27 22:07:00,
2013-03-27 18:08:00,68.9,40.9,30.24,NNE,24,5.4,5.4,36,0.00,,---,0.00,VWS V14.01,2013-03-27 22:08:00,
2013-03-27 18:10:00,68.9,40.9,30.24,NNE,27,3.1,5.4,36,0.00,,---,0.00,VWS V14.01,2013-03-27 22:10:00,
2013-03-27 18:12:00,68.9,40.9,30.24,NNE,27,3.1,3.1,36,0.00,,---,0.00,VWS V14.01,2013-03-27 22:12:00,
2013-03-27 18:13:00,68.9,40.9,30.24,NNE,27,3.1,3.1,36,0.00,,---,0.00,VWS V14.01,2013-03-27 22:13:00,
2013-03-27 18:15:00,68.9,40.9,30.24,NNW,343,3.1,3.1,36,0.00,,---,0.00,VWS V14.01,2013-03-27 22:15:00,
2013-03-27 18:17:00,68.9,40.9,30.24,NNW,343,3.1,3.1,36,0.00,,---,0.00,VWS V14.01,2013-03-27 22:17:00,
2013-03-27 18:18:00,68.9,40.9,30.24,NW,317,4.9,4.9,36,0.00,,---,0.00,VWS V14.01,2013-03-27 22:18:00,
2013-03-27 18:20:00,67.5,41.0,30.24,NW,317,4.9,4.9,38,0.00,,---,0.00,VWS V14.01,2013-03-27 22:20:00,
2013-03-27 18:23:00,67.5,41.0,30.24,NW,317,4.9,4.9,38,0.00,,---,0.00,VWS V14.01,2013-03-27 22:23:00,
2013-03-27 18:25:00,67.5,41.0,30.24,NW,306,5.4,5.4,38,0.00,,---,0.00,VWS V14.01,2013-03-27 22:25:00,
2013-03-27 18:26:00,67.5,41.0,30.24,NW,306,5.4,5.4,38,0.00,,---,0.00,VWS V14.01,2013-03-27 22:26:00,
2013-03-27 18:28:00,67.5,41.0,30.24,NNE,21,5.4,5.4,38,0.00,,---,0.00,VWS V14.01,2013-03-27 22:28:00,
2013-03-27 18:31:00,66.9,40.5,30.24,NNE,21,5.4,5.4,38,0.00,,---,0.00,VWS V14.01,2013-03-27 22:31:00,
2013-03-27 18:33:00,66.9,40.5,30.24,NNE,21,5.4,5.4,38,0.00,,---,0.00,VWS V14.01,2013-03-27 22:33:00,
2013-03-27 18:34:00,66.9,40.5,30.24,North,357,3.1,5.4,38,0.00,,---,0.00,VWS V14.01,2013-03-27 22:34:00,
2013-03-27 18:36:00,66.9,40.5,30.24,North,357,3.1,3.1,38,0.00,,---,0.00,VWS V14.01,2013-03-27 22:36:00,
2013-03-27 18:37:00,66.9,40.5,30.24,North,357,3.1,3.1,38,0.00,,---,0.00,VWS V14.01,2013-03-27 22:37:00,
2013-03-27 18:38:00,66.9,40.5,30.24,North,357,3.1,3.1,38,0.00,,---,0.00,VWS V14.01,2013-03-27 22:38:00,
2013-03-27 18:39:00,66.9,40.5,30.24,North,357,3.1,3.1,38,0.00,,---,0.00,VWS V14.01,2013-03-27 22:39:00,
2013-03-27 18:41:00,66.9,40.5,30.24,North,357,3.1,3.1,38,0.00,,---,0.00,VWS V14.01,2013-03-27 22:41:00,
2013-03-27 18:42:00,66.9,40.5,30.24,North,357,3.1,3.1,38,0.00,,---,0.00,VWS V14.01,2013-03-27 22:42:00,
2013-03-27 18:43:00,66.9,40.5,30.24,North,3,4.0,4.0,38,0.00,,---,0.00,VWS V14.01,2013-03-27 22:43:00,
2013-03-27 18:44:00,66.9,40.5,30.24,NNW,336,3.1,3.1,38,0.00,,---,0.00,VWS V14.01,2013-03-27 22:44:00,
2013-03-27 18:47:00,66.9,40.5,30.24,NNW,336,3.1,3.1,38,0.00,,---,0.00,VWS V14.01,2013-03-27 22:47:00,
2013-03-27 18:48:00,66.9,40.5,30.24,NW,310,4.0,4.0,38,0.00,,---,0.00,VWS V14.01,2013-03-27 22:48:00,
2013-03-27 18:49:00,66.9,40.5,30.24,NW,310,4.0,4.0,38,0.00,,---,0.00,VWS V14.01,2013-03-27 22:49:00,
2013-03-27 18:52:00,66.9,40.5,30.24,NW,310,4.0,4.0,38,0.00,,---,0.00,VWS V14.01,2013-03-27 22:52:00,
2013-03-27 18:53:00,66.9,40.5,30.24,NW,322,6.3,6.3,38,0.00,,---,0.00,VWS V14.01,2013-03-27 22:53:00,
2013-03-27 18:54:00,66.9,40.5,30.24,NW,322,6.3,6.3,38,0.00,,---,0.00,VWS V14.01,2013-03-27 22:54:00,
2013-03-27 18:57:00,66.9,40.5,30.24,NW,322,6.3,6.3,38,0.00,,---,0.00,VWS V14.01,2013-03-27 22:57:00,
2013-03-27 18:58:00,66.9,40.5,30.24,North,3,2.7,2.7,38,0.00,,---,0.00,VWS V14.01,2013-03-27 22:58:00,
2013-03-27 18:59:00,66.9,40.5,30.24,North,3,2.7,2.7,38,0.00,,---,0.00,VWS V14.01,2013-03-27 22:59:00,
2013-03-27 19:02:00,66.9,40.5,30.24,North,5,2.7,2.7,38,0.00,,---,0.00,VWS V14.01,2013-03-27 23:02:00,
2013-03-27 19:03:00,66.9,40.5,30.24,North,5,2.7,2.7,38,0.00,,---,0.00,VWS V14.01,2013-03-27 23:03:00,
2013-03-27 19:04:00,66.9,40.5,30.24,North,5,2.7,2.7,38,0.00,,---,0.00,VWS V14.01,2013-03-27 23:04:00,
2013-03-27 19:07:00,66.9,40.5,30.24,NNE,17,5.8,5.8,38,0.00,,---,0.00,VWS V14.01,2013-03-27 23:07:00,
2013-03-27 19:08:00,66.9,40.5,30.24,NNE,17,5.8,5.8,38,0.00,,---,0.00,VWS V14.01,2013-03-27 23:08:00,
2013-03-27 19:09:00,66.9,40.5,30.24,NNE,17,5.8,5.8,38,0.00,,---,0.00,VWS V14.01,2013-03-27 23:09:00,
2013-03-27 19:13:00,66.9,40.5,30.24,NNE,21,4.9,4.9,38,0.00,,---,0.00,VWS V14.01,2013-03-27 23:13:00,
2013-03-27 19:14:00,66.9,40.5,30.24,NNE,21,4.9,4.9,38,0.00,,---,0.00,VWS V14.01,2013-03-27 23:14:00,
2013-03-27 19:18:00,64.4,40.8,30.24,NNE,21,4.9,4.9,42,0.00,,---,0.00,VWS V14.01,2013-03-27 23:18:00,
2013-03-27 19:19:00,64.4,40.8,30.24,NNW,341,2.7,4.9,42,0.00,,---,0.00,VWS V14.01,2013-03-27 23:19:00,
2013-03-27 19:23:00,64.4,40.8,30.24,North,353,4.5,4.5,42,0.00,,---,0.00,VWS V14.01,2013-03-27 23:23:00,
2013-03-27 19:24:00,64.4,40.8,30.24,North,353,4.5,4.5,42,0.00,,---,0.00,VWS V14.01,2013-03-27 23:24:00,
2013-03-27 19:28:00,64.4,40.8,30.24,NNE,25,3.6,3.6,42,0.00,,---,0.00,VWS V14.01,2013-03-27 23:28:00,
2013-03-27 19:29:00,64.4,40.8,30.24,NNE,25,3.6,3.6,42,0.00,,---,0.00,VWS V14.01,2013-03-27 23:29:00,
2013-03-27 19:33:00,64.4,40.8,30.24,NNW,338,2.2,2.2,42,0.00,,---,0.00,VWS V14.01,2013-03-27 23:33:00,
2013-03-27 19:34:00,64.4,40.8,30.24,NNW,338,2.2,2.2,42,0.00,,---,0.00,VWS V14.01,2013-03-27 23:34:00,
2013-03-27 19:38:00,64.4,40.8,30.24,WNW,294,2.7,2.7,42,0.00,,---,0.00,VWS V14.01,2013-03-27 23:38:00,
2013-03-27 19:39:00,64.4,40.8,30.24,WNW,294,2.7,2.7,42,0.00,,---,0.00,VWS V14.01,2013-03-27 23:39:00,
2013-03-27 19:43:00,64.4,40.8,30.24,NNW,339,5.4,5.4,42,0.00,,---,0.00,VWS V14.01,2013-03-27 23:43:00,
2013-03-27 19:44:00,64.4,40.8,30.24,NNW,339,5.4,5.4,42,0.00,,---,0.00,VWS V14.01,2013-03-27 23:44:00,
2013-03-27 19:45:00,62.8,40.6,30.24,NNW,339,5.4,5.4,44,0.00,,---,0.00,VWS V14.01,2013-03-27 23:45:00,
2013-03-27 19:48:00,62.8,40.6,30.24,NNW,329,5.8,5.8,44,0.00,,---,0.00,VWS V14.01,2013-03-27 23:48:00,
2013-03-27 19:49:00,62.6,40.4,30.24,NNW,329,5.8,5.8,44,0.00,,---,0.00,VWS V14.01,2013-03-27 23:49:00,
2013-03-27 19:50:00,62.6,40.4,30.24,NNW,329,5.8,5.8,44,0.00,,---,0.00,VWS V14.01,2013-03-27 23:50:00,
2013-03-27 19:53:00,62.6,40.4,30.24,North,10,3.6,3.6,44,0.00,,---,0.00,VWS V14.01,2013-03-27 23:53:00,
2013-03-27 19:54:00,62.6,40.4,30.24,North,10,3.6,3.6,44,0.00,,---,0.00,VWS V14.01,2013-03-27 23:54:00,
2013-03-27 19:55:00,62.6,40.4,30.24,North,10,3.6,3.6,44,0.00,,---,0.00,VWS V14.01,2013-03-27 23:55:00,
2013-03-27 19:58:00,62.6,40.4,30.24,NW,321,3.6,3.6,44,0.00,,---,0.00,VWS V14.01,2013-03-27 23:58:00,
2013-03-27 19:59:00,62.6,40.4,30.24,NW,321,3.6,3.6,44,0.00,,---,0.00,VWS V14.01,2013-03-27 23:59:00,
2013-03-27 20:00:00,62.6,40.4,30.24,NE,40,2.7,2.7,44,0.00,,---,0.00,VWS V14.01,2013-03-28 00:00:00,
2013-03-27 20:04:00,62.6,40.4,30.24,NE,40,2.7,2.7,44,0.00,,---,0.00,VWS V14.01,2013-03-28 00:04:00,
2013-03-27 20:05:00,62.6,40.4,30.24,NE,40,2.7,2.7,44,0.00,,---,0.00,VWS V14.01,2013-03-28 00:05:00,
2013-03-27 20:09:00,62.6,40.4,30.24,North,5,3.1,3.1,44,0.00,,---,0.00,VWS V14.01,2013-03-28 00:09:00,
2013-03-27 20:11:00,62.6,40.4,30.24,WNW,302,0.0,0.0,44,0.00,,---,0.00,VWS V14.01,2013-03-28 00:11:00,
2013-03-27 20:14:00,61.7,40.7,30.24,NW,321,3.1,3.1,46,0.00,,---,0.00,VWS V14.01,2013-03-28 00:14:00,
2013-03-27 20:16:00,61.7,40.7,30.24,NW,321,3.1,3.1,46,0.00,,---,0.00,VWS V14.01,2013-03-28 00:16:00,
2013-03-27 20:19:00,61.7,40.7,30.24,NW,307,2.7,3.6,46,0.00,,---,0.00,VWS V14.01,2013-03-28 00:19:00,
2013-03-27 20:21:00,61.7,40.7,30.24,NW,307,2.7,2.7,46,0.00,,---,0.00,VWS V14.01,2013-03-28 00:21:00,
2013-03-27 20:24:00,61.7,40.7,30.27,NW,307,2.7,2.7,46,0.00,,---,0.00,VWS V14.01,2013-03-28 00:24:00,
2013-03-27 20:26:00,61.7,40.7,30.27,NW,307,2.7,2.7,46,0.00,,---,0.00,VWS V14.01,2013-03-28 00:26:00,
2013-03-27 20:29:00,61.7,40.7,30.27,NW,324,5.8,5.8,46,0.00,,---,0.00,VWS V14.01,2013-03-28 00:29:00,
2013-03-27 20:30:00,61.7,40.7,30.27,NW,324,5.8,5.8,46,0.00,,---,0.00,VWS V14.01,2013-03-28 00:30:00,
2013-03-27 20:31:00,61.7,40.7,30.27,NW,324,5.8,5.8,46,0.00,,---,0.00,VWS V14.01,2013-03-28 00:31:00,
2013-03-27 20:34:00,61.7,40.7,30.27,NW,324,5.8,5.8,46,0.00,,---,0.00,VWS V14.01,2013-03-28 00:34:00,
2013-03-27 20:35:00,61.7,40.7,30.27,NW,324,5.8,5.8,46,0.00,,---,0.00,VWS V14.01,2013-03-28 00:35:00,
2013-03-27 20:36:00,61.7,40.7,30.27,NW,324,5.8,5.8,46,0.00,,---,0.00,VWS V14.01,2013-03-28 00:36:00,
2013-03-27 20:39:00,61.7,40.7,30.27,WNW,297,0.0,0.0,46,0.00,,---,0.00,VWS V14.01,2013-03-28 00:39:00,
2013-03-27 20:40:00,61.7,40.7,30.27,WNW,297,0.0,0.0,46,0.00,,---,0.00,VWS V14.01,2013-03-28 00:40:00,
2013-03-27 20:41:00,61.0,40.6,30.27,WNW,297,0.0,0.0,47,0.00,,---,0.00,VWS V14.01,2013-03-28 00:41:00,
2013-03-27 20:44:00,60.8,40.5,30.27,WNW,297,0.0,0.0,47,0.00,,---,0.00,VWS V14.01,2013-03-28 00:44:00,
2013-03-27 20:45:00,60.8,40.5,30.27,WNW,297,0.0,0.0,47,0.00,,---,0.00,VWS V14.01,2013-03-28 00:45:00,
2013-03-27 20:46:00,60.8,40.5,30.27,WNW,297,0.0,0.0,47,0.00,,---,0.00,VWS V14.01,2013-03-28 00:46:00,
2013-03-27 20:49:00,60.8,40.5,30.27,North,349,2.7,2.7,47,0.00,,---,0.00,VWS V14.01,2013-03-28 00:49:00,
2013-03-27 20:50:00,60.8,40.5,30.27,North,349,2.7,2.7,47,0.00,,---,0.00,VWS V14.01,2013-03-28 00:50:00,
2013-03-27 20:52:00,60.8,40.5,30.27,North,349,2.7,2.7,47,0.00,,---,0.00,VWS V14.01,2013-03-28 00:52:00,
2013-03-27 20:54:00,60.8,40.5,30.27,North,349,2.7,2.7,47,0.00,,---,0.00,VWS V14.01,2013-03-28 00:54:00,
2013-03-27 20:55:00,60.8,40.5,30.27,North,349,2.7,2.7,47,0.00,,---,0.00,VWS V14.01,2013-03-28 00:55:00,
2013-03-27 20:57:00,60.8,40.5,30.27,North,349,2.7,2.7,47,0.00,,---,0.00,VWS V14.01,2013-03-28 00:57:00,
2013-03-27 20:59:00,60.8,40.5,30.27,NNW,341,2.2,2.2,47,0.00,,---,0.00,VWS V14.01,2013-03-28 00:59:00,
2013-03-27 21:00:00,60.8,40.5,30.27,NNW,341,2.2,2.2,47,0.00,,---,0.00,VWS V14.01,2013-03-28 01:00:00,
2013-03-27 21:02:00,60.8,40.5,30.27,NNW,341,2.2,2.2,47,0.00,,---,0.00,VWS V14.01,2013-03-28 01:02:00,
2013-03-27 21:04:00,60.8,40.5,30.27,NNW,341,2.2,2.2,47,0.00,,---,0.00,VWS V14.01,2013-03-28 01:04:00,
2013-03-27 21:05:00,60.8,40.5,30.27,NNW,341,2.2,2.2,47,0.00,,---,0.00,VWS V14.01,2013-03-28 01:05:00,
2013-03-27 21:07:00,60.8,40.5,30.27,WNW,289,3.6,3.6,47,0.00,,---,0.00,VWS V14.01,2013-03-28 01:07:00,
2013-03-27 21:09:00,60.3,40.5,30.27,WNW,289,0.0,0.0,48,0.00,,---,0.00,VWS V14.01,2013-03-28 01:09:00,
2013-03-27 21:10:00,60.3,40.5,30.27,WNW,289,0.0,0.0,48,0.00,,---,0.00,VWS V14.01,2013-03-28 01:10:00,
2013-03-27 21:12:00,60.3,40.5,30.27,WNW,289,0.0,0.0,48,0.00,,---,0.00,VWS V14.01,2013-03-28 01:12:00,
2013-03-27 21:15:00,60.3,40.5,30.27,WNW,289,0.0,0.0,48,0.00,,---,0.00,VWS V14.01,2013-03-28 01:15:00,
2013-03-27 21:16:00,60.3,40.5,30.27,WNW,289,0.0,0.0,48,0.00,,---,0.00,VWS V14.01,2013-03-28 01:16:00,
2013-03-27 21:17:00,60.3,40.5,30.27,NW,320,3.1,3.1,48,0.00,,---,0.00,VWS V14.01,2013-03-28 01:17:00,
2013-03-27 21:20:00,60.3,40.5,30.27,NW,321,2.2,2.2,48,0.00,,---,0.00,VWS V14.01,2013-03-28 01:20:00,
2013-03-27 21:21:00,60.3,40.5,30.27,NW,321,2.2,2.2,48,0.00,,---,0.00,VWS V14.01,2013-03-28 01:21:00,
2013-03-27 21:23:00,60.3,40.5,30.27,NW,321,2.2,2.2,48,0.00,,---,0.00,VWS V14.01,2013-03-28 01:23:00,
2013-03-27 21:25:00,60.3,40.5,30.27,NW,321,2.2,2.2,48,0.00,,---,0.00,VWS V14.01,2013-03-28 01:25:00,
2013-03-27 21:26:00,60.3,40.5,30.27,NW,313,0.0,2.2,48,0.00,,---,0.00,VWS V14.01,2013-03-28 01:26:00,
2013-03-27 21:28:00,60.3,40.5,30.27,NW,313,0.0,0.0,48,0.00,,---,0.00,VWS V14.01,2013-03-28 01:28:00,
2013-03-27 21:30:00,60.3,40.5,30.27,NW,313,0.0,0.0,48,0.00,,---,0.00,VWS V14.01,2013-03-28 01:30:00,
2013-03-27 21:31:00,60.3,40.5,30.27,NW,313,0.0,0.0,48,0.00,,---,0.00,VWS V14.01,2013-03-28 01:31:00,
2013-03-27 21:33:00,60.3,40.5,30.27,NW,313,0.0,0.0,48,0.00,,---,0.00,VWS V14.01,2013-03-28 01:33:00,
2013-03-27 21:35:00,60.3,40.5,30.27,NNW,335,3.6,3.6,48,0.00,,---,0.00,VWS V14.01,2013-03-28 01:35:00,
2013-03-27 21:36:00,60.3,40.5,30.27,NNW,335,3.6,3.6,48,0.00,,---,0.00,VWS V14.01,2013-03-28 01:36:00,
2013-03-27 21:38:00,59.7,41.1,30.27,North,0,0.0,3.6,50,0.00,,---,0.00,VWS V14.01,2013-03-28 01:38:00,
2013-03-27 21:41:00,59.7,41.1,30.27,North,0,0.0,0.0,50,0.00,,---,0.00,VWS V14.01,2013-03-28 01:41:00,
2013-03-27 21:43:00,59.7,41.1,30.27,North,0,0.0,0.0,50,0.00,,---,0.00,VWS V14.01,2013-03-28 01:43:00,
2013-03-27 21:46:00,59.7,41.1,30.27,NNW,332,4.0,4.0,50,0.00,,---,0.00,VWS V14.01,2013-03-28 01:46:00,
2013-03-27 21:49:00,59.7,41.1,30.27,North,357,0.0,0.0,50,0.00,,---,0.00,VWS V14.01,2013-03-28 01:49:00,
2013-03-27 21:51:00,59.7,41.1,30.27,North,357,0.0,0.0,50,0.00,,---,0.00,VWS V14.01,2013-03-28 01:51:00,
2013-03-27 21:54:00,59.7,41.1,30.27,North,357,0.0,0.0,50,0.00,,---,0.00,VWS V14.01,2013-03-28 01:54:00,
2013-03-27 21:56:00,59.7,41.1,30.27,North,0,3.1,3.1,50,0.00,,---,0.00,VWS V14.01,2013-03-28 01:56:00,
2013-03-27 21:57:00,59.7,41.1,30.27,North,0,3.1,3.1,50,0.00,,---,0.00,VWS V14.01,2013-03-28 01:57:00,
2013-03-27 21:59:00,59.7,41.1,30.27,North,353,0.0,0.0,50,0.00,,---,0.00,VWS V14.01,2013-03-28 01:59:00,
2013-03-27 22:01:00,59.7,41.1,30.27,North,353,0.0,0.0,50,0.00,,---,0.00,VWS V14.01,2013-03-28 02:01:00,
2013-03-27 22:02:00,59.7,41.1,30.27,North,353,0.0,0.0,50,0.00,,---,0.00,VWS V14.01,2013-03-28 02:02:00,
2013-03-27 22:04:00,59.2,41.6,30.27,North,353,0.0,0.0,52,0.00,,---,0.00,VWS V14.01,2013-03-28 02:04:00,
2013-03-27 22:06:00,59.2,41.6,30.27,North,353,0.0,0.0,52,0.00,,---,0.00,VWS V14.01,2013-03-28 02:06:00,
2013-03-27 22:07:00,59.2,41.6,30.27,North,353,0.0,0.0,52,0.00,,---,0.00,VWS V14.01,2013-03-28 02:07:00,
2013-03-27 22:09:00,59.2,41.6,30.27,North,353,0.0,0.0,52,0.00,,---,0.00,VWS V14.01,2013-03-28 02:09:00,
2013-03-27 22:12:00,59.2,41.6,30.27,North,353,0.0,0.0,52,0.00,,---,0.00,VWS V14.01,2013-03-28 02:12:00,
2013-03-27 22:14:00,59.2,41.6,30.27,North,353,0.0,0.0,52,0.00,,---,0.00,VWS V14.01,2013-03-28 02:14:00,
2013-03-27 22:15:00,59.2,41.6,30.27,North,353,0.0,0.0,52,0.00,,---,0.00,VWS V14.01,2013-03-28 02:15:00,
2013-03-27 22:17:00,59.2,41.6,30.27,North,353,0.0,0.0,52,0.00,,---,0.00,VWS V14.01,2013-03-28 02:17:00,
2013-03-27 22:19:00,59.2,41.6,30.27,North,353,0.0,0.0,52,0.00,,---,0.00,VWS V14.01,2013-03-28 02:19:00,
2013-03-27 22:20:00,59.2,41.6,30.27,North,353,0.0,0.0,52,0.00,,---,0.00,VWS V14.01,2013-03-28 02:20:00,
2013-03-27 22:22:00,59.2,41.6,30.27,North,353,0.0,0.0,52,0.00,,---,0.00,VWS V14.01,2013-03-28 02:22:00,
2013-03-27 22:24:00,59.2,41.6,30.27,North,353,0.0,0.0,52,0.00,,---,0.00,VWS V14.01,2013-03-28 02:24:00,
2013-03-27 22:25:00,59.2,41.6,30.27,North,353,0.0,0.0,52,0.00,,---,0.00,VWS V14.01,2013-03-28 02:25:00,
2013-03-27 22:27:00,59.2,41.6,30.27,North,353,0.0,0.0,52,0.00,,---,0.00,VWS V14.01,2013-03-28 02:27:00,
2013-03-27 22:28:00,59.2,41.6,30.27,North,353,0.0,0.0,52,0.00,,---,0.00,VWS V14.01,2013-03-28 02:28:00,
2013-03-27 22:29:00,58.6,42.1,30.27,North,353,0.0,0.0,54,0.00,,---,0.00,VWS V14.01,2013-03-28 02:29:00,
2013-03-27 22:30:00,58.6,42.1,30.27,North,353,0.0,0.0,54,0.00,,---,0.00,VWS V14.01,2013-03-28 02:30:00,
2013-03-27 22:32:00,58.6,42.1,30.27,North,353,0.0,0.0,54,0.00,,---,0.00,VWS V14.01,2013-03-28 02:32:00,
2013-03-27 22:33:00,58.6,42.1,30.27,North,353,0.0,0.0,54,0.00,,---,0.00,VWS V14.01,2013-03-28 02:33:00,
2013-03-27 22:34:00,58.6,42.1,30.27,North,353,0.0,0.0,54,0.00,,---,0.00,VWS V14.01,2013-03-28 02:34:00,
2013-03-27 22:35:00,58.6,42.1,30.27,North,353,0.0,0.0,54,0.00,,---,0.00,VWS V14.01,2013-03-28 02:35:00,
2013-03-27 22:37:00,58.6,42.1,30.27,North,353,0.0,0.0,54,0.00,,---,0.00,VWS V14.01,2013-03-28 02:37:00,
2013-03-27 22:39:00,58.6,42.1,30.27,North,353,0.0,0.0,54,0.00,,---,0.00,VWS V14.01,2013-03-28 02:39:00,
2013-03-27 22:40:00,58.6,42.1,30.27,North,353,0.0,0.0,54,0.00,,---,0.00,VWS V14.01,2013-03-28 02:40:00,
2013-03-27 22:42:00,58.6,42.1,30.27,North,353,0.0,0.0,54,0.00,,---,0.00,VWS V14.01,2013-03-28 02:42:00,
2013-03-27 22:44:00,58.6,42.1,30.27,North,353,0.0,0.0,54,0.00,,---,0.00,VWS V14.01,2013-03-28 02:44:00,
2013-03-27 22:45:00,58.6,42.1,30.27,North,353,0.0,0.0,54,0.00,,---,0.00,VWS V14.01,2013-03-28 02:45:00,
2013-03-27 22:47:00,58.6,42.1,30.27,North,353,0.0,0.0,54,0.00,,---,0.00,VWS V14.01,2013-03-28 02:47:00,
2013-03-27 22:49:00,58.6,42.1,30.27,North,353,0.0,0.0,54,0.00,,---,0.00,VWS V14.01,2013-03-28 02:49:00,
2013-03-27 22:50:00,58.6,42.1,30.27,North,353,0.0,0.0,54,0.00,,---,0.00,VWS V14.01,2013-03-28 02:50:00,
2013-03-27 22:52:00,58.6,42.1,30.27,North,353,0.0,0.0,54,0.00,,---,0.00,VWS V14.01,2013-03-28 02:52:00,
2013-03-27 22:54:00,58.1,42.0,30.27,North,353,0.0,0.0,55,0.00,,---,0.00,VWS V14.01,2013-03-28 02:54:00,
2013-03-27 22:55:00,58.1,42.0,30.27,North,353,0.0,0.0,55,0.00,,---,0.00,VWS V14.01,2013-03-28 02:55:00,
2013-03-27 22:58:00,58.1,42.0,30.27,North,353,0.0,0.0,55,0.00,,---,0.00,VWS V14.01,2013-03-28 02:58:00,
2013-03-27 22:59:00,58.1,42.0,30.27,North,353,0.0,0.0,55,0.00,,---,0.00,VWS V14.01,2013-03-28 02:59:00,
2013-03-27 23:00:00,58.1,42.5,30.27,North,353,0.0,0.0,56,0.00,,---,0.00,VWS V14.01,2013-03-28 03:00:00,
2013-03-27 23:03:00,58.1,42.5,30.27,North,353,0.0,0.0,56,0.00,,---,0.00,VWS V14.01,2013-03-28 03:03:00,
2013-03-27 23:04:00,58.1,42.5,30.27,North,353,0.0,0.0,56,0.00,,---,0.00,VWS V14.01,2013-03-28 03:04:00,
2013-03-27 23:05:00,58.1,42.5,30.27,North,353,0.0,0.0,56,0.00,,---,0.00,VWS V14.01,2013-03-28 03:05:00,
2013-03-27 23:08:00,58.1,42.5,30.27,North,353,0.0,0.0,56,0.00,,---,0.00,VWS V14.01,2013-03-28 03:08:00,
2013-03-27 23:09:00,58.1,42.5,30.27,North,353,0.0,0.0,56,0.00,,---,0.00,VWS V14.01,2013-03-28 03:09:00,
2013-03-27 23:10:00,58.1,42.5,30.27,North,353,0.0,0.0,56,0.00,,---,0.00,VWS V14.01,2013-03-28 03:10:00,
2013-03-27 23:13:00,58.1,42.5,30.27,North,353,0.0,0.0,56,0.00,,---,0.00,VWS V14.01,2013-03-28 03:13:00,
2013-03-27 23:14:00,58.1,42.5,30.27,North,353,0.0,0.0,56,0.00,,---,0.00,VWS V14.01,2013-03-28 03:14:00,
2013-03-27 23:15:00,58.1,42.5,30.27,North,353,0.0,0.0,56,0.00,,---,0.00,VWS V14.01,2013-03-28 03:15:00,
2013-03-27 23:18:00,58.1,42.5,30.27,North,353,0.0,0.0,56,0.00,,---,0.00,VWS V14.01,2013-03-28 03:18:00,
2013-03-27 23:19:00,58.1,42.5,30.27,North,353,0.0,0.0,56,0.00,,---,0.00,VWS V14.01,2013-03-28 03:19:00,
2013-03-27 23:20:00,58.1,42.5,30.27,North,353,0.0,0.0,56,0.00,,---,0.00,VWS V14.01,2013-03-28 03:20:00,
2013-03-27 23:23:00,58.1,42.5,30.27,North,353,0.0,0.0,56,0.00,,---,0.00,VWS V14.01,2013-03-28 03:23:00,
2013-03-27 23:24:00,57.9,43.2,30.27,North,353,0.0,0.0,58,0.00,,---,0.00,VWS V14.01,2013-03-28 03:24:00,
2013-03-27 23:25:00,57.9,43.2,30.27,North,353,0.0,0.0,58,0.00,,---,0.00,VWS V14.01,2013-03-28 03:25:00,
2013-03-27 23:26:00,57.9,43.2,30.27,North,353,0.0,0.0,58,0.00,,---,0.00,VWS V14.01,2013-03-28 03:26:00,
2013-03-27 23:28:00,57.7,43.1,30.27,North,353,0.0,0.0,58,0.00,,---,0.00,VWS V14.01,2013-03-28 03:28:00,
2013-03-27 23:29:00,57.7,43.1,30.27,North,353,0.0,0.0,58,0.00,,---,0.00,VWS V14.01,2013-03-28 03:29:00,
2013-03-27 23:30:00,57.7,43.1,30.27,North,353,0.0,0.0,58,0.00,,---,0.00,VWS V14.01,2013-03-28 03:30:00,
2013-03-27 23:31:00,57.7,43.1,30.27,North,353,0.0,0.0,58,0.00,,---,0.00,VWS V14.01,2013-03-28 03:31:00,
2013-03-27 23:33:00,57.7,43.1,30.27,North,353,0.0,0.0,58,0.00,,---,0.00,VWS V14.01,2013-03-28 03:33:00,
2013-03-27 23:34:00,57.7,43.1,30.27,North,353,0.0,0.0,58,0.00,,---,0.00,VWS V14.01,2013-03-28 03:34:00,
2013-03-27 23:35:00,57.7,43.1,30.27,North,353,0.0,0.0,58,0.00,,---,0.00,VWS V14.01,2013-03-28 03:35:00,
2013-03-27 23:36:00,57.7,43.1,30.27,North,353,0.0,0.0,58,0.00,,---,0.00,VWS V14.01,2013-03-28 03:36:00,
2013-03-27 23:38:00,57.7,43.1,30.27,North,353,0.0,0.0,58,0.00,,---,0.00,VWS V14.01,2013-03-28 03:38:00,
2013-03-27 23:40:00,57.7,43.1,30.27,North,353,0.0,0.0,58,0.00,,---,0.00,VWS V14.01,2013-03-28 03:40:00,
2013-03-27 23:41:00,57.7,43.1,30.27,North,353,0.0,0.0,58,0.00,,---,0.00,VWS V14.01,2013-03-28 03:41:00,
2013-03-27 23:43:00,57.7,43.1,30.27,North,353,0.0,0.0,58,0.00,,---,0.00,VWS V14.01,2013-03-28 03:43:00,
2013-03-27 23:45:00,57.7,43.1,30.27,North,353,0.0,0.0,58,0.00,,---,0.00,VWS V14.01,2013-03-28 03:45:00,
2013-03-27 23:46:00,57.7,43.1,30.27,North,353,0.0,0.0,58,0.00,,---,0.00,VWS V14.01,2013-03-28 03:46:00,
2013-03-27 23:49:00,57.7,43.1,30.27,North,353,0.0,0.0,58,0.00,,---,0.00,VWS V14.01,2013-03-28 03:49:00,
2013-03-27 23:50:00,57.7,43.1,30.27,North,353,0.0,0.0,58,0.00,,---,0.00,VWS V14.01,2013-03-28 03:50:00,
2013-03-27 23:51:00,57.7,43.1,30.27,North,353,0.0,0.0,58,0.00,,---,0.00,VWS V14.01,2013-03-28 03:51:00,
2013-03-27 23:54:00,57.7,43.1,30.27,North,353,0.0,0.0,58,0.00,,---,0.00,VWS V14.01,2013-03-28 03:54:00,
2013-03-27 23:55:00,57.7,43.1,30.27,North,353,0.0,0.0,58,0.00,,---,0.00,VWS V14.01,2013-03-28 03:55:00,
2013-03-27 23:56:00,57.7,43.1,30.27,North,353,0.0,0.0,58,0.00,,---,0.00,VWS V14.01,2013-03-28 03:56:00,
2013-03-27 23:59:00,57.7,43.1,30.27,NNW,344,0.0,0.0,58,0.00,,---,0.00,VWS V14.01,2013-03-28 03:59:00,